TimeEST,TemperatureF,Dew PointF,Humidity,Sea Level PressureIn,VisibilityMPH,Wind Direction,Wind SpeedMPH,Gust SpeedMPH,PrecipitationIn,Events,Conditions,WindDirDegrees,DateUTC
12:51 AM,28.0,19.9,72,30.48,10.0,Calm,Calm,-,N/A,,Clear,0,2013-01-11 05:51:00
1:51 AM,26.1,19.9,78,30.50,10.0,Calm,Calm,-,N/A,,Clear,0,2013-01-11 06:51:00
2:51 AM,25.0,19.9,81,30.48,10.0,Calm,Calm,-,N/A,,Clear,0,2013-01-11 07:51:00
3:51 AM,25.0,19.9,81,30.46,10.0,NW,4.6,-,N/A,,Clear,310,2013-01-11 08:51:00
4:51 AM,24.1,19.9,84,30.45,10.0,NNW,3.5,-,N/A,,Clear,330,2013-01-11 09:51:00
5:51 AM,23.0,19.0,85,30.47,10.0,NNW,3.5,-,N/A,,Clear,330,2013-01-11 10:51:00
6:51 AM,23.0,19.0,85,30.48,10.0,Calm,Calm,-,N/A,,Clear,0,2013-01-11 11:51:00
7:51 AM,23.0,19.0,85,30.50,10.0,NNW,3.5,-,N/A,,Clear,330,2013-01-11 12:51:00
8:51 AM,25.0,19.9,81,30.49,10.0,NW,3.5,-,N/A,,Clear,310,2013-01-11 13:51:00
9:51 AM,30.0,21.0,69,30.48,10.0,Calm,Calm,-,N/A,,Clear,0,2013-01-11 14:51:00
11:51 AM,35.1,21.0,57,30.41,10.0,North,-9999.0,-,0.04,,Unknown,0,2013-01-11 16:51:00
12:51 PM,36.0,21.9,57,30.39,10.0,ESE,4.6,-,N/A,,Clear,110,2013-01-11 17:51:00
1:51 PM,36.0,24.1,62,30.38,10.0,ESE,4.6,-,N/A,,Clear,110,2013-01-11 18:51:00
2:51 PM,36.0,24.1,62,30.36,10.0,Calm,Calm,-,N/A,,Mostly Cloudy,0,2013-01-11 19:51:00
3:51 PM,35.1,25.0,67,30.33,10.0,Calm,Calm,-,N/A,,Mostly Cloudy,0,2013-01-11 20:51:00
4:51 PM,35.1,25.0,67,30.31,10.0,Calm,Calm,-,N/A,,Overcast,0,2013-01-11 21:51:00
6:51 PM,33.1,26.1,75,30.27,10.0,Calm,Calm,-,0.00,Rain,Light Rain,0,2013-01-11 23:51:00
7:51 PM,33.1,28.0,82,30.27,10.0,Calm,Calm,-,0.00,,Overcast,0,2013-01-12 00:51:00
8:47 PM,33.8,30.2,87,30.26,5.0,Calm,Calm,-,0.02,Rain,Light Rain,0,2013-01-12 01:47:00
8:51 PM,33.1,30.0,89,30.26,5.0,Calm,Calm,-,0.02,Rain,Light Rain,0,2013-01-12 01:51:00
9:51 PM,33.1,32.0,96,30.24,3.0,Calm,Calm,-,0.03,Rain,Light Rain,0,2013-01-12 02:51:00
10:09 PM,33.8,30.2,87,30.23,4.0,Calm,Calm,-,0.00,Rain,Light Rain,0,2013-01-12 03:09:00
10:23 PM,33.8,32.0,93,30.22,3.0,Calm,Calm,-,0.01,Rain,Light Rain,0,2013-01-12 03:23:00
10:27 PM,33.8,32.0,93,30.22,3.0,Calm,Calm,-,0.01,Rain,Light Rain,0,2013-01-12 03:27:00
10:41 PM,33.8,32.0,93,30.23,3.0,Calm,Calm,-,0.01,Rain,Light Rain,0,2013-01-12 03:41:00
10:51 PM,33.1,30.9,92,30.23,3.0,Calm,Calm,-,0.01,,Overcast,0,2013-01-12 03:51:00
10:59 PM,33.8,30.2,87,30.24,2.5,NW,3.5,-,N/A,,Overcast,310,2013-01-12 03:59:00
11:06 PM,33.8,32.0,93,30.23,3.0,Calm,Calm,-,0.00,Rain,Light Rain,0,2013-01-12 04:06:00
11:27 PM,33.8,32.0,93,30.23,2.5,Calm,Calm,-,0.01,Rain,Light Rain,0,2013-01-12 04:27:00
11:42 PM,35.6,33.8,93,30.22,1.8,Calm,Calm,-,0.01,Rain,Light Rain,0,2013-01-12 04:42:00
11:51 PM,35.1,33.1,92,30.22,1.5,Calm,Calm,-,0.01,Rain,Light Rain,0,2013-01-12 04:51:00